カタログに戻る

COSMOS 1036

運用中軍事LEO
NORAD 11045·PAYLOAD·🇷🇺 Russia

打ち上げ Oct 4, 1978 から Plesetsk Cosmodrome

Loading…

次のパス (今後24時間)

TLE

最新Source: Space-Track

元期: Sep 14, 2026, 05:13 UTC

1 11045U 78091C   26257.21803785 -.00000001  00000-0  99471-4 0  9998
2 11045  74.0367 183.3902 0024335  18.8032 132.6218 12.50853260189356

AllMySatでCOSMOS 1036をリアルタイム追跡

Download on the App Store